Погода в Элисте

Россия / Республика Калмыкия     46°18′27″N   44°16′11″E
темп.,
°C
ветер,
м/с
пор.,
м/с
влажн.,
%
обл.,
%
осадки,
мм/ч
давл.,
гПа
погр.,
м
23 апреля, пт
пт2300:00+11з4788100 0.3 1023192
03:00+10сз3693100 2.0 1022256
06:00+11зюз2391100 0.9 1023137
09:00+13зюз568054 1.1 1023680
12:00+17зсз784810 0.6 10211998
15:00+17з884444 0.6 10212214
18:00+15зсз58593 0.0 1021701
21:00+11сз2266100 0.0 102117
24 апреля, сб
сб2400:00+10юз2264100 0.0 101910
03:00+11юз2263100 0.0 101925
06:00+11юз2269100 0.0 101951
09:00+13зюз4664100 0.0 1019602
12:00+17ююз6755100 0.0 10181104
15:00+17зюз10125253 0.3 10181840
18:00+15з811655 0.0 1018867
21:00+11з59875 0.0 1020325
25 апреля, вс
вс2500:00+9зсз3584100 0.0 1021138
03:00+8зюз3684100 0.0 1022186
06:00+8зсз2475100 0.0 1022183
09:00+11ссз2255100 0.0 1022700
12:00+12св214999 0.0 10221048
15:00+12вюв3352100 0.0 1020782
18:00+10вюв3567100 0.0 1019330
21:00+9св5973100 0.1 1018318
26 апреля, пн
пн2600:00+9св61083100 0.1 1017430
03:00+7св71283100 0.8 1016479
06:00+7св71188100 1.0 1015399
09:00+8всв5986100 1.0 1015371
12:00+11всв5572100 0.0 1013549
15:00+10св4473100 0.0 1013543
18:00+8ссв4592100 0.8 1013253
21:00+8сз1193100 1.4 1014100
27 апреля, вт
вт2700:00+8зсз3693100 0.7 1015385
03:00+7зсз4895100 0.7 1015353
06:00+7зсз3793100 0.0 1017309
09:00+10зсз5673100 0.0 1017635
12:00+14з565432 0.1 10171640
15:00+14з66476 0.1 10161724
18:00+12з46580 0.0 1016824
21:00+11зюз2566100 0.0 1017163